Total_Precipitation_Accumulation
1.38 1.46 1.30 1.15 1.00 1.23 1.48 1.50 1.37 1.44 1.44 1.53 1.51 1.47 1.39 1.02 0.77 0.73 0.83 1.18 1.17 1.08 1.13 1.20 1.16 1.08 1.04 0.93 0.80 0.69 0.60 0.59 0.56 0.50 0.42 0.35 0.32 0.26 0.22 0.12 0.07 0.03 0.02
1.31 1.35 1.28 1.17 1.12 1.28 1.44 1.45 1.40 1.55 1.59 1.55 1.28 1.18 1.15 1.12 0.98 0.82 0.86 1.08 1.17 1.02 1.02 1.15 1.22 1.22 1.26 1.18 1.01 0.88 0.73 0.64 0.53 0.43 0.40 0.37 0.31 0.26 0.29 0.32 0.36 0.12 0.02
1.04 1.14 1.14 1.12 1.17 1.22 1.25 1.22 1.22 1.37 1.32 1.19 1.03 0.98 0.99 0.97 0.94 0.91 0.83 0.86 0.98 1.03 0.94 0.99 1.06 1.09 1.17 1.26 1.21 1.03 0.82 0.66 0.52 0.38 0.30 0.30 0.27 0.20 0.19 0.27 0.34 0.17 0.07
0.79 0.86 0.84 0.88 0.94 0.99 1.00 0.95 0.97 1.05 1.10 1.16 1.14 0.99 1.03 1.02 0.95 1.01 1.03 0.90 0.87 0.84 1.05 1.16 1.12 1.05 1.13 1.25 1.28 1.19 0.95 0.71 0.55 0.42 0.32 0.26 0.25 0.20 0.16 0.18 0.19 0.17 0.11
0.70 0.76 0.74 0.73 0.71 0.73 0.76 0.72 0.78 0.87 0.92 0.97 0.94 0.94 0.91 0.89 0.82 0.83 0.96 0.84 0.82 0.85 0.97 1.07 1.19 1.12 1.19 1.30 1.46 1.59 1.38 0.97 0.68 0.57 0.53 0.46 0.35 0.26 0.22 0.23 0.19 0.15 0.13
0.61 0.59 0.57 0.54 0.50 0.51 0.55 0.58 0.67 0.75 0.77 0.83 0.77 0.78 0.76 0.68 0.66 0.67 0.65 0.66 0.70 0.68 0.79 0.94 1.02 0.89 1.06 1.23 1.43 1.61 1.61 1.42 1.06 0.76 0.70 0.64 0.55 0.37 0.22 0.20 0.21 0.19 0.16
0.52 0.47 0.41 0.40 0.37 0.36 0.38 0.40 0.47 0.55 0.59 0.66 0.74 0.71 0.64 0.59 0.58 0.57 0.54 0.51 0.52 0.64 0.75 0.87 0.92 0.87 0.77 0.85 0.89 1.07 1.36 1.59 1.45 1.11 0.86 0.74 0.70 0.52 0.30 0.21 0.20 0.22 0.19
0.40 0.39 0.37 0.36 0.35 0.34 0.33 0.36 0.41 0.44 0.47 0.54 0.60 0.58 0.52 0.50 0.52 0.45 0.51 0.51 0.50 0.66 0.75 0.75 0.80 0.84 0.70 0.71 0.58 0.67 0.97 1.23 1.47 1.44 1.18 0.90 0.78 0.64 0.47 0.34 0.25 0.22 0.21
0.26 0.29 0.33 0.36 0.35 0.31 0.30 0.32 0.34 0.35 0.35 0.38 0.47 0.53 0.47 0.42 0.38 0.39 0.43 0.47 0.53 0.61 0.63 0.72 0.68 0.64 0.67 0.64 0.60 0.57 0.80 0.90 1.21 1.53 1.52 1.25 0.98 0.79 0.67 0.56 0.43 0.30 0.24
0.16 0.18 0.24 0.29 0.30 0.31 0.31 0.25 0.26 0.31 0.31 0.28 0.31 0.39 0.37 0.38 0.42 0.40 0.39 0.45 0.53 0.51 0.51 0.54 0.56 0.57 0.60 0.61 0.58 0.54 0.53 0.65 0.96 1.35 1.55 1.52 1.30 1.02 0.88 0.83 0.92 0.80 0.53
0.20 0.17 0.17 0.22 0.27 0.33 0.38 0.34 0.32 0.30 0.29 0.26 0.26 0.33 0.34 0.30 0.35 0.41 0.39 0.40 0.44 0.38 0.36 0.37 0.38 0.44 0.48 0.53 0.59 0.57 0.50 0.58 0.73 0.99 1.22 1.37 1.37 1.26 1.13 1.11 1.34 1.45 1.26
0.28 0.27 0.27 0.30 0.33 0.33 0.34 0.36 0.39 0.38 0.36 0.33 0.26 0.29 0.42 0.39 0.29 0.34 0.35 0.38 0.39 0.28 0.30 0.34 0.36 0.39 0.46 0.56 0.57 0.52 0.60 0.67 0.68 0.72 0.84 0.97 1.10 1.17 1.21 1.28 1.42 1.60 1.65
0.27 0.29 0.29 0.33 0.37 0.37 0.34 0.32 0.33 0.38 0.45 0.45 0.35 0.27 0.30 0.42 0.37 0.31 0.31 0.30 0.33 0.33 0.36 0.39 0.43 0.50 0.59 0.79 0.70 0.63 0.62 0.67 0.67 0.67 0.66 0.68 0.75 0.84 0.93 1.07 1.25 1.45 1.61
0.29 0.27 0.25 0.25 0.28 0.31 0.32 0.30 0.26 0.27 0.34 0.43 0.45 0.46 0.41 0.35 0.42 0.37 0.31 0.33 0.38 0.43 0.50 0.51 0.60 0.69 0.81 0.90 0.90 0.73 0.55 0.48 0.43 0.44 0.44 0.45 0.48 0.54 0.64 0.73 0.84 1.00 1.13
0.26 0.24 0.22 0.20 0.20 0.23 0.26 0.27 0.26 0.27 0.27 0.28 0.36 0.49 0.51 0.41 0.38 0.39 0.38 0.43 0.56 0.54 0.56 0.68 0.84 0.90 0.84 0.85 0.77 0.65 0.48 0.43 0.38 0.34 0.33 0.34 0.35 0.38 0.42 0.46 0.50 0.59 0.69
0.21 0.20 0.17 0.14 0.14 0.15 0.17 0.22 0.25 0.28 0.33 0.36 0.37 0.43 0.54 0.58 0.51 0.48 0.48 0.53 0.66 0.66 0.66 0.72 0.85 0.88 0.77 0.62 0.57 0.58 0.49 0.47 0.42 0.34 0.28 0.29 0.31 0.31 0.31 0.33 0.33 0.34 0.37
0.20 0.20 0.17 0.15 0.12 0.12 0.15 0.18 0.21 0.27 0.33 0.42 0.51 0.51 0.50 0.62 0.69 0.65 0.63 0.64 0.68 0.74 0.73 0.69 0.83 0.87 0.76 0.57 0.49 0.51 0.52 0.53 0.44 0.39 0.32 0.28 0.28 0.29 0.29 0.30 0.31 0.30 0.28
0.21 0.21 0.20 0.17 0.12 0.10 0.12 0.14 0.16 0.21 0.29 0.39 0.55 0.71 0.71 0.66 0.65 0.64 0.63 0.64 0.70 0.81 0.82 0.73 0.78 0.86 0.82 0.71 0.60 0.52 0.45 0.46 0.49 0.49 0.42 0.36 0.32 0.31 0.29 0.29 0.29 0.29 0.29
0.16 0.19 0.19 0.18 0.16 0.14 0.13 0.11 0.12 0.15 0.19 0.25 0.38 0.61 0.80 0.93 0.85 0.67 0.58 0.56 0.64 0.78 0.87 0.83 0.83 0.95 0.98 0.88 0.72 0.56 0.46 0.43 0.42 0.45 0.46 0.41 0.36 0.34 0.32 0.29 0.28 0.27 0.24
0.09 0.14 0.18 0.20 0.18 0.16 0.14 0.13 0.14 0.15 0.16 0.19 0.26 0.36 0.49 0.69 0.86 0.91 0.78 0.65 0.64 0.71 0.79 0.84 0.96 1.18 1.21 1.09 0.83 0.66 0.58 0.49 0.44 0.38 0.37 0.37 0.36 0.33 0.31 0.31 0.28 0.25 0.23
0.08 0.13 0.19 0.21 0.20 0.18 0.13 0.14 0.17 0.15 0.17 0.18 0.20 0.25 0.28 0.36 0.49 0.64 0.76 0.81 0.78 0.73 0.78 0.86 1.09 1.51 1.54 1.29 0.92 0.73 0.67 0.64 0.54 0.46 0.39 0.32 0.29 0.27 0.26 0.28 0.31 0.29 0.25
0.12 0.15 0.19 0.24 0.24 0.17 0.12 0.11 0.13 0.17 0.21 0.25 0.26 0.26 0.23 0.22 0.25 0.35 0.47 0.61 0.75 0.79 0.80 0.86 1.06 1.38 1.54 1.43 1.17 0.97 0.76 0.63 0.58 0.54 0.47 0.44 0.39 0.34 0.29 0.25 0.27 0.28 0.28
0.17 0.18 0.20 0.27 0.31 0.31 0.21 0.13 0.10 0.15 0.21 0.26 0.32 0.35 0.24 0.15 0.20 0.25 0.31 0.38 0.47 0.57 0.70 0.79 0.94 1.16 1.45 1.58 1.40 1.05 0.88 0.79 0.64 0.58 0.55 0.54 0.51 0.45 0.39 0.34 0.36 0.30 0.29
0.22 0.22 0.22 0.28 0.37 0.37 0.30 0.21 0.14 0.17 0.23 0.27 0.32 0.35 0.33 0.27 0.26 0.27 0.30 0.30 0.32 0.36 0.43 0.55 0.70 0.94 1.23 1.54 1.66 1.42 1.21 1.07 0.89 0.78 0.63 0.58 0.59 0.52 0.45 0.40 0.43 0.37 0.31
0.26 0.25 0.24 0.28 0.36 0.42 0.36 0.25 0.21 0.23 0.26 0.29 0.32 0.36 0.39 0.36 0.27 0.20 0.25 0.26 0.27 0.30 0.32 0.38 0.50 0.69 0.95 1.25 1.57 1.68 1.40 1.07 0.94 0.80 0.66 0.57 0.54 0.58 0.57 0.46 0.44 0.47 0.39
0.32 0.28 0.24 0.27 0.33 0.44 0.43 0.29 0.25 0.27 0.31 0.35 0.45 0.49 0.44 0.39 0.32 0.20 0.22 0.26 0.25 0.25 0.29 0.30 0.34 0.45 0.62 0.87 1.19 1.37 1.38 1.08 0.86 0.76 0.56 0.48 0.48 0.50 0.55 0.50 0.40 0.38 0.39